[[{"header":{"parameterUnit":"m.s-1","parameterCategory":1,"la1":30.2991,"la2":30.254,"lo1":-89.0895,"lo2":-89.0444,"dy":0.0017,"dx":0.0017,"nx":28,"ny":28,"refTime":"2025-02-08T09:00:00:Z","depth":0,"parameterNumber":2,"parameterNumberName":"U-component_of_WINDS"},"data":[0,0,0,0,0,0,0,0,0,0,0,0,0,0,0,0,0,0,0,0,0,0,0,0,0,0,0,0,0,0,0,0,0,0,0,0,0,0,0,0,0,0,0,0,0,0,0,0,0,0,0,0,0,0,0,0,0,0,-0.6844,-0.6845,0,-0.687,-0.687,-0.687,-0.6884,-0.6884,-0.6884,-0.6884,-0.691,-0.6911,-0.6911,0,0,0,0,0,0,0,0,0,0,0,0,0,-0.6808,-0.6808,-0.6844,-0.6845,-0.6845,-0.687,-0.687,-0.6871,-0.6884,-0.6884,-0.6884,-0.6884,-0.691,-0.6911,-0.6911,0,0,0,0,0,0,0,0,0,0,0,0,0,-0.6828,-0.6809,-0.6844,-0.6855,-0.6856,-0.687,-0.687,-0.6871,-0.6884,-0.6884,-0.6884,-0.6884,-0.691,-0.691,-0.6911,-0.6917,0,0,-0.6914,-0.6915,0,0,0,0,0,0,0,0,-0.6826,-0.6829,-0.6853,-0.6854,-0.6855,-0.6874,-0.6867,-0.6886,-0.6884,-0.6873,-0.6884,-0.6884,-0.6898,-0.69,-0.6905,-0.6918,-0.6919,-0.6915,-0.6915,-0.6916,-0.6916,0,0,0,0,0,0,0,-0.6825,-0.6828,-0.6855,-0.6853,-0.6855,-0.6858,-0.6861,-0.6871,-0.6885,-0.6874,-0.6875,-0.6878,-0.6899,-0.6904,-0.6905,-0.6919,-0.6915,-0.6915,-0.6916,-0.6916,-0.6939,-0.6939,0,0,0,0,0,0,-0.6822,-0.6827,-0.6854,-0.6855,-0.6841,-0.6859,-0.6862,-0.6868,-0.6885,-0.6888,-0.6878,-0.6879,-0.6902,-0.6904,-0.6906,-0.6914,-0.6916,-0.6917,-0.6917,-0.6939,-0.6939,-0.6939,0,0,0,0,0,0,-0.6821,-0.6824,-0.6853,-0.6841,-0.6845,-0.686,-0.6866,-0.6868,-0.6873,-0.6888,-0.6891,-0.6881,-0.6902,-0.6905,-0.6914,-0.6915,-0.6917,-0.6918,-0.6939,-0.6939,-0.6939,-0.6929,0,0,0,0,0,0,-0.682,-0.6824,-0.6826,-0.6841,-0.6846,-0.686,-0.6866,-0.6869,-0.6875,-0.6876,-0.6891,-0.6893,-0.6902,-0.6913,-0.6915,-0.6916,-0.6919,-0.6939,-0.6939,-0.6939,-0.6929,-0.6929,-0.6928,0,0,0,0,0,-0.6819,-0.6822,-0.6826,-0.6829,-0.6849,-0.686,-0.6863,-0.6873,-0.6875,-0.6877,-0.6887,-0.6893,-0.6914,-0.6913,-0.6916,-0.6918,-0.6939,-0.6939,-0.6939,-0.6929,-0.6929,-0.6928,0,0,0,0,0,0,-0.6806,-0.6824,-0.6829,-0.6837,-0.6847,-0.6862,-0.6866,-0.6872,-0.6881,-0.6882,-0.6894,-0.6897,-0.6905,-0.6913,-0.6911,-0.6924,-0.6927,-0.6928,-0.6919,-0.6918,-0.6918,-0.6916,-0.6919,0,0,0,0,0,-0.6804,-0.6812,-0.6827,-0.6833,-0.6838,-0.6851,-0.6856,-0.6863,-0.6874,-0.6878,-0.6889,-0.6899,-0.6908,-0.6914,-0.6923,-0.693,-0.6934,-0.6933,-0.6932,-0.6932,-0.6932,-0.6937,-0.6937,-0.6939,-0.6939,-0.6939,0,0,-0.6801,-0.6812,-0.6816,-0.6831,-0.684,-0.6848,-0.6854,-0.6862,-0.6869,-0.688,-0.6889,-0.6897,-0.6909,-0.6918,-0.6922,-0.6924,-0.6932,-0.6932,-0.6931,-0.6932,-0.6937,-0.6937,-0.6937,-0.6939,-0.6939,-0.6939,0,0,-0.6798,-0.6807,-0.6813,-0.6822,-0.6835,-0.6843,-0.6845,-0.6859,-0.6865,-0.6875,-0.6883,-0.6891,-0.6906,-0.6915,-0.6921,-0.6922,-0.6928,-0.6925,-0.6922,-0.6926,-0.6926,-0.6926,-0.6927,-0.6927,-0.6925,-0.6925,-0.6925,0,-0.6792,-0.6804,-0.6815,-0.6823,-0.683,-0.684,-0.6847,-0.6855,-0.687,-0.6874,-0.6876,-0.6896,-0.6905,-0.6916,-0.6916,-0.6921,-0.6923,-0.6923,-0.6925,-0.6925,-0.6925,-0.6926,-0.6926,-0.6925,-0.6925,-0.6925,-0.6925,0,-0.6796,-0.6805,-0.6808,-0.6823,-0.683,-0.6837,-0.6849,-0.6855,-0.6861,-0.687,-0.688,-0.6891,-0.6903,-0.6906,-0.6912,-0.6918,-0.6919,-0.6923,-0.6926,-0.6924,-0.6925,-0.6926,-0.6924,-0.6924,-0.6924,-0.6924,0,0,-0.6786,-0.6807,-0.6808,-0.6815,-0.6831,-0.6837,-0.6845,-0.6857,-0.6862,-0.6872,-0.6879,-0.6892,-0.6896,-0.6903,-0.691,-0.6914,-0.6915,-0.6918,-0.6919,-0.6917,-0.6922,-0.6919,-0.6919,-0.6919,-0.6919,-0.6919,-0.6921,0,-0.6786,-0.68,-0.681,-0.6821,-0.6829,-0.6839,-0.6846,-0.6856,-0.6864,-0.6873,-0.6882,-0.6891,-0.6895,-0.69,-0.6904,-0.6914,-0.6916,-0.6914,-0.6926,-0.6926,-0.6922,-0.692,-0.6916,-0.6918,-0.6922,-0.6922,-0.6922,0,-0.6787,-0.6798,-0.6809,-0.6824,-0.6827,-0.6833,-0.6845,-0.6853,-0.6865,-0.687,-0.6879,-0.6886,-0.6895,-0.6898,-0.691,-0.6908,-0.6914,-0.6919,-0.692,-0.6921,-0.6924,-0.6921,-0.6918,-0.6918,-0.6923,-0.6922,-0.6922,0,-0.6779,-0.6796,-0.6805,-0.681,-0.6828,-0.6832,-0.6839,-0.6851,-0.6858,-0.6868,-0.6872,-0.6884,-0.689,-0.6898,-0.6909,-0.691,-0.692,-0.6924,-0.6925,-0.6925,-0.6927,-0.6927,-0.6925,-0.693,-0.693,-0.693,-0.693,0,-0.6778,-0.6784,-0.6801,-0.6806,-0.6814,-0.6826,-0.6833,-0.6842,-0.6852,-0.686,-0.687,-0.6876,-0.689,-0.6899,-0.6907,-0.6916,-0.6919,-0.6924,-0.6926,-0.6923,-0.6922,-0.6926,-0.6927,-0.693,-0.693,-0.693,-0.693,0,-0.677,-0.6781,-0.6792,-0.6808,-0.6812,-0.6817,-0.683,-0.6836,-0.6845,-0.6854,-0.6857,-0.6871,-0.6882,-0.6893,-0.6908,-0.6913,-0.6922,-0.6925,-0.6918,-0.6919,-0.692,-0.692,-0.6921,-0.6922,-0.6927,-0.6927,-0.6926,0,-0.6768,-0.6773,-0.679,-0.6796,-0.6803,-0.6812,-0.6819,-0.6831,-0.6838,-0.6852,-0.6856,-0.6868,-0.6877,-0.6894,-0.6905,-0.6916,-0.692,-0.6919,-0.6921,-0.6918,-0.692,-0.6919,-0.692,-0.6918,-0.6918,-0.6918,-0.6918,0,-0.6764,-0.677,-0.6779,-0.6791,-0.6799,-0.6809,-0.6819,-0.6823,-0.6837,-0.6844,-0.6855,-0.6863,-0.6878,-0.6889,-0.6901,-0.6909,-0.6916,-0.6918,-0.6919,-0.6916,-0.6911,-0.6914,-0.6916,-0.6917,-0.6917,-0.6918,-0.6918,-0.6918,-0.6759,-0.6765,-0.6777,-0.6788,-0.6797,-0.6806,-0.6812,-0.6822,-0.6832,-0.6845,-0.6852,-0.6863,-0.6875,-0.6892,-0.69,-0.6909,-0.6911,-0.6912,-0.6913,-0.6913,-0.6912,-0.691,-0.6911,-0.6911,-0.6911,-0.6911,-0.6911,0,-0.6756,-0.6765,-0.6774,-0.6788,-0.6796,-0.6803,-0.6814,-0.6821,-0.683,-0.6841,-0.6851,-0.6864,-0.6875,-0.6887,-0.6899,-0.6904,-0.6907,-0.6906,-0.6906,-0.6908,-0.691,-0.6908,-0.6903,-0.6903,-0.6903,-0.6903,-0.6903,-0.6903,-0.6755,-0.6764,-0.6772,-0.6786,-0.6795,-0.6805,-0.6812,-0.682,-0.6829,-0.6843,-0.6853,-0.6861,-0.6872,-0.6885,-0.6896,-0.6899,-0.6903,-0.6901,-0.6906,-0.6907,-0.6908,-0.6908,-0.6907,-0.6902,-0.6902,-0.6903,-0.6903,-0.6903]},{"header":{"parameterUnit":"m.s-1","parameterCategory":1,"la1":30.2991,"la2":30.254,"lo1":-89.0895,"lo2":-89.0444,"dy":0.0017,"dx":0.0017,"nx":28,"ny":28,"refTime":"2025-02-08T09:00:00:Z","depth":0,"parameterNumber":3,"parameterNumberName":"V-component_of_WINDS"},"data":[0,0,0,0,0,0,0,0,0,0,0,0,0,0,0,0,0,0,0,0,0,0,0,0,0,0,0,0,0,0,0,0,0,0,0,0,0,0,0,0,0,0,0,0,0,0,0,0,0,0,0,0,0,0,0,0,0,0,3.429,3.4291,0,3.4382,3.4383,3.4384,3.4403,3.4403,3.4402,3.4401,3.4499,3.4502,3.4505,0,0,0,0,0,0,0,0,0,0,0,0,0,3.4133,3.4136,3.4289,3.4291,3.4292,3.4382,3.4383,3.4385,3.4404,3.4403,3.4402,3.4401,3.4498,3.4502,3.4506,0,0,0,0,0,0,0,0,0,0,0,0,0,3.4211,3.4137,3.4289,3.4312,3.4315,3.4382,3.4384,3.4385,3.4404,3.4403,3.4402,3.4401,3.4497,3.4501,3.4506,3.4558,0,0,3.4521,3.4523,0,0,0,0,0,0,0,0,3.4207,3.4217,3.4308,3.4311,3.4314,3.438,3.4364,3.4443,3.4404,3.437,3.4401,3.44,3.446,3.4468,3.4488,3.4562,3.4567,3.4522,3.4525,3.4527,3.4528,0,0,0,0,0,0,0,3.4201,3.4213,3.4326,3.4309,3.4313,3.4319,3.4329,3.4379,3.442,3.4373,3.4375,3.4385,3.4462,3.4483,3.4491,3.4568,3.4521,3.4526,3.4529,3.4531,3.4694,3.4695,0,0,0,0,0,0,3.4191,3.4208,3.4323,3.4329,3.4256,3.4323,3.4334,3.436,3.442,3.4428,3.4386,3.4386,3.4476,3.4485,3.4494,3.4561,3.4527,3.4531,3.4534,3.4692,3.4694,3.4696,0,0,0,0,0,0,3.4188,3.4201,3.432,3.4269,3.4285,3.4327,3.4356,3.4362,3.4384,3.443,3.4437,3.44,3.4475,3.4487,3.4543,3.4565,3.4533,3.4538,3.4691,3.4693,3.4695,3.4695,0,0,0,0,0,0,3.4183,3.42,3.4219,3.4269,3.4287,3.4365,3.4357,3.4365,3.4392,3.4392,3.4445,3.4452,3.4475,3.4535,3.4547,3.4571,3.4542,3.4689,3.4692,3.4694,3.4693,3.4696,3.4699,0,0,0,0,0,3.4178,3.4215,3.4219,3.4233,3.4311,3.4366,3.4377,3.4401,3.4393,3.4414,3.4444,3.4451,3.456,3.4541,3.4555,3.458,3.4688,3.4691,3.4694,3.4691,3.4696,3.4699,0,0,0,0,0,0,3.4166,3.4222,3.4228,3.4282,3.4319,3.4369,3.4395,3.4405,3.4446,3.4444,3.4474,3.4486,3.4541,3.4566,3.4543,3.4635,3.4624,3.463,3.4617,3.4622,3.4625,3.4618,3.4546,0,0,0,0,0,3.4169,3.4208,3.4255,3.4299,3.4317,3.4353,3.4378,3.4394,3.4434,3.445,3.4484,3.4524,3.4568,3.4596,3.4638,3.4696,3.471,3.4721,3.4724,3.4727,3.4732,3.4769,3.4775,3.4706,3.4706,3.4706,0,0,3.4177,3.4213,3.4235,3.4297,3.4328,3.4369,3.4366,3.4409,3.4441,3.4457,3.4512,3.4538,3.4585,3.4643,3.467,3.4666,3.4754,3.4731,3.4732,3.4737,3.4773,3.4779,3.4785,3.4708,3.4708,3.4707,0,0,3.4213,3.4243,3.4284,3.4315,3.4362,3.4386,3.4396,3.4445,3.4464,3.4519,3.4533,3.4572,3.4645,3.4679,3.4706,3.4758,3.4767,3.4771,3.4789,3.4824,3.483,3.4835,3.4857,3.4864,3.4776,3.4776,3.4776,0,3.4218,3.4279,3.4304,3.4347,3.4376,3.4392,3.4435,3.4465,3.4523,3.4543,3.4537,3.4632,3.4664,3.4732,3.4745,3.4765,3.478,3.4766,3.4827,3.4832,3.4837,3.4858,3.4866,3.4777,3.4776,3.4776,3.4776,0,3.4284,3.4327,3.4354,3.4411,3.4442,3.4485,3.4518,3.4547,3.4561,3.4587,3.4645,3.4685,3.4737,3.4754,3.4767,3.4825,3.4821,3.482,3.481,3.4844,3.4864,3.4872,3.4777,3.4777,3.4777,3.4777,0,0,3.4315,3.4385,3.4395,3.4423,3.4477,3.4511,3.4556,3.4607,3.4633,3.4673,3.4714,3.4777,3.4778,3.4809,3.4826,3.4857,3.49,3.4853,3.4855,3.4863,3.497,3.4972,3.498,3.4906,3.4907,3.4909,3.4967,0,3.4359,3.4439,3.4464,3.4532,3.4574,3.4591,3.4631,3.4669,3.4695,3.4736,3.4764,3.481,3.4806,3.4825,3.4856,3.4888,3.4922,3.4884,3.4947,3.4949,3.4936,3.4991,3.4992,3.5045,3.4975,3.4976,3.4977,0,3.4422,3.4464,3.4536,3.4587,3.4606,3.4641,3.4692,3.4729,3.4775,3.4791,3.4827,3.4843,3.4893,3.4879,3.4951,3.4924,3.4952,3.4972,3.4975,3.4983,3.4966,3.5003,3.5062,3.5071,3.4989,3.4988,3.4987,0,3.444,3.4515,3.4569,3.4591,3.4652,3.4677,3.4703,3.4748,3.4778,3.4822,3.4843,3.4893,3.4921,3.496,3.4991,3.4977,3.5061,3.5048,3.5079,3.5079,3.5097,3.5096,3.5164,3.5111,3.5111,3.511,3.511,0,3.4489,3.4533,3.4578,3.4611,3.4662,3.4691,3.4742,3.477,3.4809,3.485,3.4868,3.4906,3.4943,3.4987,3.5011,3.5069,3.508,3.5097,3.5104,3.5097,3.5095,3.5117,3.5115,3.5113,3.5112,3.5112,3.5111,0,3.4519,3.455,3.4611,3.4664,3.4678,3.4714,3.476,3.4795,3.4821,3.4873,3.4887,3.493,3.4983,3.5017,3.5084,3.51,3.5165,3.5168,3.5149,3.5153,3.5183,3.5181,3.5269,3.5283,3.5218,3.5218,3.5219,0,3.4549,3.4583,3.464,3.4669,3.4696,3.4741,3.4772,3.4803,3.4835,3.4891,3.492,3.4973,3.5018,3.5103,3.5141,3.5194,3.5201,3.5228,3.5209,3.5202,3.5205,3.5203,3.5209,3.5232,3.5232,3.5233,3.5233,0,3.4599,3.4614,3.4658,3.4708,3.4745,3.4786,3.4827,3.485,3.4888,3.4924,3.4978,3.5013,3.5083,3.5137,3.5194,3.5224,3.5236,3.5239,3.5249,3.5244,3.5233,3.5242,3.5161,3.5237,3.5236,3.5236,3.5236,3.5236,3.4632,3.4665,3.4711,3.476,3.4795,3.4834,3.4869,3.4901,3.4947,3.5005,3.5021,3.5079,3.5127,3.5204,3.5235,3.5282,3.5279,3.5293,3.5298,3.5301,3.5304,3.5223,3.5292,3.5292,3.5292,3.5292,3.5292,0,3.4686,3.4717,3.4762,3.482,3.486,3.4866,3.4913,3.4947,3.4997,3.504,3.5084,3.5149,3.5203,3.5246,3.5302,3.5332,3.5339,3.5346,3.5345,3.5353,3.5301,3.5288,3.5339,3.5339,3.5339,3.5339,3.5339,3.5339,3.4719,3.4776,3.4797,3.4872,3.4903,3.4959,3.4986,3.5023,3.5058,3.5129,3.5174,3.5201,3.5246,3.5306,3.5357,3.5369,3.539,3.5396,3.5409,3.5361,3.5356,3.5351,3.5339,3.5399,3.5399,3.5457,3.5457,3.5458]}]]